CAPE
418 197 20 0 0 0 2 9 4 0 0 0 0 0 0 0 0 0 0 0 0 0 0 0 0 0 0 0 106 249 223 280 410 489 610 473 393 392 400 464 473 456 402
142 8 0 0 0 0 0 1 0 0 0 0 0 0 0 0 0 0 0 0 0 0 0 0 0 0 0 1 13 38 67 275 278 309 443 416 360 365 318 316 358 394 401
26 30 0 0 0 0 0 34 0 0 0 0 0 0 0 0 0 0 0 0 0 0 0 0 0 0 0 0 0 0 1 21 141 290 307 350 383 345 282 233 272 326 358
61 57 22 3 5 23 1 12 0 0 0 0 0 0 0 0 0 0 0 0 0 0 0 0 0 0 0 0 0 0 0 0 0 2 252 301 351 333 326 267 238 263 259
29 66 30 26 63 57 32 23 6 0 0 0 0 0 0 0 0 0 0 0 0 0 0 0 0 0 0 0 0 0 0 0 0 3 1 157 218 262 293 328 283 216 191
0 3 5 23 47 52 34 13 18 12 2 0 0 0 0 0 0 0 0 0 0 0 0 0 0 0 0 0 0 0 0 0 0 12 0 17 14 227 266 225 275 262 267
0 0 0 4 16 22 35 63 55 53 32 15 0 0 0 0 0 0 0 0 0 0 0 0 0 0 0 0 0 0 0 0 0 0 0 0 0 0 1 145 131 215 99
0 0 0 0 0 0 0 12 41 50 57 38 5 0 0 2 12 0 0 0 0 0 0 0 0 0 0 0 0 0 0 0 0 0 0 3 0 0 0 1 32 56 70
0 0 0 0 0 0 0 0 0 2 8 55 132 35 21 53 74 60 16 0 0 0 0 0 0 0 0 0 0 0 0 0 0 0 0 0 0 0 0 0 27 76 96
0 0 0 0 0 0 0 0 0 0 9 14 65 97 113 79 107 84 35 24 0 0 0 0 0 0 0 0 0 0 0 0 0 0 0 0 0 0 0 0 2 6 10
0 0 0 0 0 0 0 0 0 0 2 22 41 58 50 74 48 36 88 16 10 3 0 0 0 0 0 0 0 0 0 0 0 0 0 0 0 0 1 0 1 0 0
0 0 0 0 0 0 0 0 2 5 7 12 11 13 15 0 0 21 28 70 93 1 9 1 0 1 3 0 0 0 0 0 0 0 0 32 26 31 0 0 2 3 0
0 0 0 0 0 0 0 5 13 14 8 9 2 4 5 5 5 6 14 2 0 5 9 9 7 9 6 3 0 0 0 0 0 0 0 0 2 8 7 0 0 1 0
0 0 1 5 13 20 44 55 33 11 22 41 31 7 8 11 7 7 9 14 16 28 26 19 21 16 14 8 1 0 0 0 0 0 0 8 0 0 0 0 0 0 0
0 2 16 12 3 5 8 6 12 10 13 22 36 22 14 26 20 17 22 24 27 37 9 14 21 18 17 12 7 4 5 0 0 0 0 0 0 0 0 0 0 0 0
21 11 4 5 7 13 23 20 15 3 12 4 0 2 10 14 27 33 29 28 28 23 15 3 1 1 1 0 2 1 2 10 0 0 0 0 0 0 0 0 0 0 0
9 7 8 14 21 19 10 15 16 23 16 12 10 11 8 6 9 8 13 20 20 20 15 4 9 7 8 6 5 8 6 8 10 4 0 0 0 0 0 0 0 0 0
39 39 33 20 23 24 18 11 20 17 12 8 7 4 1 0 0 2 3 10 13 20 26 21 16 16 16 16 23 21 8 4 10 7 29 10 0 0 0 0 0 0 0
35 36 36 43 37 26 35 21 12 13 18 19 6 0 0 1 2 3 5 8 11 8 17 23 14 13 15 13 10 16 20 25 13 8 2 6 0 0 0 0 0 0 0
26 25 17 17 15 2 0 8 9 18 8 4 2 1 1 1 3 3 2 4 2 4 5 8 6 5 10 9 11 15 20 24 25 11 6 0 1 2 1 0 0 0 0
1 0 0 0 0 0 0 0 0 8 21 19 17 11 9 4 0 0 0 0 0 3 9 18 25 23 19 21 27 24 30 27 30 37 35 37 36 28 19 0 0 0 0
0 0 0 0 1 0 0 0 0 4 7 10 14 12 10 10 2 6 2 3 10 15 18 18 13 16 18 14 23 21 44 31 29 49 68 58 55 34 38 36 7 3 1
0 0 1 3 8 10 0 0 0 0 4 7 13 16 9 2 4 10 11 19 15 9 3 17 20 20 19 14 14 24 34 38 37 32 47 67 57 64 72 32 9 5 6
1 3 9 7 9 4 0 0 0 3 15 17 19 18 18 14 14 9 11 10 13 19 25 19 19 16 21 12 30 38 43 48 57 48 51 76 86 85 87 70 35 23 27
6 12 9 9 10 8 4 0 6 17 19 19 17 20 14 12 7 10 22 37 31 26 17 23 8 8 8 9 14 44 66 76 102 49 42 64 86 92 77 108 117 29 8
14 15 14 16 12 16 5 9 16 31 32 27 22 18 14 22 16 8 39 47 35 23 24 40 34 35 12 20 0 36 65 56 56 57 33 59 30 38 70 128 85 99 86
CIN
0 0 -1 0 0 0 0 -1 0 0 0 0 0 0 0 0 0 0 0 0 0 0 0 0 0 0 0 0 -19 -1 -3 -4 -1 -3 -2 -7 -14 -19 -20 -14 -11 -7 -7
-1 -9 0 0 0 0 0 0 0 0 0 0 0 0 0 0 0 0 0 0 0 0 0 0 0 0 0 0 -28 -27 -11 -1 -1 -4 -3 -8 -11 -13 -17 -20 -21 -12 -6
-37 -28 0 0 0 0 0 -5 0 0 0 0 0 0 0 0 0 0 0 0 0 0 0 0 0 0 0 0 0 -4 -46 -21 -1 -1 -1 -1 -3 -6 -11 -17 -21 -21 -15
-33 -24 -23 -5 -3 -13 -3 -9 0 0 0 0 0 0 0 0 0 0 0 0 0 0 0 0 0 0 0 0 0 0 0 0 0 -48 0 0 0 -1 -4 -17 -18 -17 -17
-55 -43 -39 -38 -29 -20 -30 -35 -26 0 0 0 0 0 0 0 0 0 0 0 0 0 0 0 0 0 0 0 0 0 0 0 -7 -30 -12 -1 0 0 -1 -1 -5 -7 -8
0 -19 -54 -40 -33 -24 -30 -29 -28 -36 -13 0 0 0 0 0 0 0 0 0 0 0 0 0 0 0 0 0 0 0 0 0 0 -3 0 -24 -12 -9 -1 0 -1 -1 0
0 0 0 -78 -59 -38 -36 -46 -38 -18 -40 -42 0 0 0 0 0 0 0 0 0 0 0 0 0 0 0 0 0 0 0 0 0 0 0 0 0 0 -32 -18 -32 0 -2
0 0 0 0 0 0 0 -72 -49 -22 -6 -16 -6 0 0 0 -2 0 0 0 0 0 0 0 0 0 0 0 0 0 0 0 0 0 0 0 0 0 0 -6 -10 -20 -2
0 0 0 0 0 0 0 0 0 -20 -3 0 0 0 -2 0 0 0 -14 0 0 0 0 0 0 0 0 0 0 0 0 0 0 0 0 0 0 0 0 0 0 0 -31
0 0 0 0 0 0 0 0 0 0 0 -1 0 0 0 -1 0 0 -7 -1 0 0 0 0 0 0 0 0 0 0 0 0 0 0 0 0 0 0 0 0 0 -1 -6
0 0 0 0 0 0 0 0 0 0 0 0 0 0 -6 0 0 -7 0 -18 0 0 0 0 0 0 0 0 0 0 0 0 0 0 0 0 0 0 0 0 0 0 0
0 0 0 0 0 0 0 0 0 0 0 0 0 0 0 0 0 -1 -2 0 0 -7 0 0 0 0 0 0 0 0 0 0 0 0 0 -18 -8 0 0 0 0 0 0
0 0 0 0 0 0 0 0 0 0 0 0 0 0 0 0 0 0 0 0 -1 0 0 0 0 0 0 0 0 0 0 0 0 0 0 0 -18 -13 -4 0 0 0 0
0 0 0 0 0 0 0 0 -2 0 0 0 0 0 0 0 0 0 0 0 0 0 0 0 0 0 0 0 0 0 0 0 0 0 0 -81 0 0 0 0 0 0 0
0 0 0 0 0 0 0 0 0 0 0 0 0 0 0 0 0 0 0 0 0 0 0 0 0 0 0 0 -1 0 0 -35 0 0 0 0 0 0 0 0 0 0 0
0 0 0 0 0 0 0 0 0 0 0 0 0 0 0 0 0 0 0 0 0 0 0 0 0 0 0 0 0 0 0 -18 -14 0 0 0 0 0 0 0 0 0 0
0 0 0 0 0 0 0 0 0 0 0 0 0 0 0 0 0 0 0 0 0 0 0 0 0 0 0 0 0 0 0 0 0 -71 0 0 0 0 0 0 0 0 0
0 0 0 0 0 0 0 0 0 0 0 0 0 0 0 0 0 0 0 0 0 0 0 0 0 0 0 0 0 0 0 0 0 -11 -79 -62 0 0 0 0 0 0 0
0 0 0 0 0 0 0 0 0 0 0 0 0 0 0 0 0 0 0 0 0 0 0 0 0 0 0 0 0 0 0 0 0 -8 -62 -53 -31 0 0 0 0 0 0
0 0 0 0 0 0 0 0 0 0 0 0 0 0 0 0 0 0 0 0 0 0 0 0 0 0 0 0 0 0 0 0 0 0 -5 0 -15 -30 -13 0 0 0 0
0 0 0 0 0 0 0 0 0 0 0 0 0 0 0 -1 0 0 0 0 0 0 0 0 0 0 0 0 0 0 0 0 0 0 0 0 0 0 0 0 0 0 0
0 0 0 0 0 0 0 0 0 0 0 0 0 0 0 0 0 -2 -1 0 0 0 0 0 0 0 0 0 0 0 0 0 0 0 0 0 0 0 0 0 -6 -34 -40
0 0 0 0 0 0 0 0 0 0 0 0 0 0 0 0 -1 0 -1 0 0 0 -3 0 0 0 0 0 0 0 0 0 0 0 0 0 0 0 0 0 -32 -45 -40
0 0 0 0 0 0 0 0 0 0 0 0 0 0 0 0 0 0 0 0 0 0 0 0 0 0 0 0 0 0 0 0 0 0 0 0 0 0 0 0 -3 -6 -10
0 0 0 0 0 0 -1 0 0 0 0 0 0 0 0 0 0 0 0 0 0 0 0 0 -5 -8 -3 -2 -4 0 0 0 0 0 0 0 0 0 0 0 0 -4 -2
0 0 0 0 0 0 -1 0 0 0 0 0 0 0 0 0 -1 0 0 0 0 0 0 0 0 0 0 0 0 0 0 0 0 0 0 0 0 0 0 0 0 0 0
Wind_Speed
5 6 6 6 6 6 6 6 6 6 5 5 5 5 5 4 4 4 2 4 2 4 5 5 5 5 6 7 8 8 4 8 10 12 13 14 16 16 15 15 15 15 15
6 7 7 7 7 6 6 6 6 7 6 5 6 6 6 5 5 4 3 5 3 3 6 7 7 5 5 6 6 7 6 4 8 7 11 12 13 14 14 16 16 17 17
7 8 7 7 7 7 8 7 7 7 7 6 8 7 7 7 6 6 5 4 9 6 5 7 8 8 8 7 6 6 7 5 5 9 4 6 10 12 15 18 17 18 19
9 9 8 8 8 8 8 8 8 8 8 8 8 7 7 7 7 7 7 6 5 4 9 7 7 8 9 9 9 9 7 8 7 7 7 8 6 8 11 17 18 18 19
9 9 10 10 10 9 9 9 10 10 10 9 9 9 9 8 8 8 9 9 7 6 4 9 5 5 5 7 8 9 10 8 7 8 8 8 11 11 10 10 17 19 19
9 9 10 12 11 10 11 11 13 12 12 12 12 11 10 10 10 9 10 10 9 7 7 6 7 7 4 2 6 7 8 9 10 10 6 2 4 11 13 12 11 13 17
9 10 9 11 11 11 12 13 14 15 13 13 12 12 13 13 13 12 11 11 12 11 7 6 4 3 5 5 4 7 8 8 10 11 10 4 4 5 7 13 16 14 17
12 11 11 11 12 11 13 14 14 13 13 13 14 13 14 14 14 13 13 12 14 10 10 8 5 5 4 4 2 5 9 11 10 10 11 11 7 5 7 10 13 15 15
13 13 12 11 11 11 11 13 13 17 14 13 17 12 11 15 13 11 13 12 13 10 9 7 6 5 5 5 3 6 3 10 13 12 10 12 11 10 9 9 11 16 13
12 13 13 12 11 10 12 12 12 13 14 15 13 14 18 17 15 13 8 13 12 12 10 7 6 6 6 5 3 5 2 5 10 10 11 9 11 12 11 10 9 9 10
13 12 11 12 10 8 10 11 11 11 11 12 12 12 11 13 15 14 15 8 11 10 8 8 7 5 6 6 6 3 3 5 7 9 9 11 12 13 11 11 11 8 10
11 13 11 9 7 7 6 6 6 7 7 8 8 9 8 5 7 9 12 15 12 12 9 7 6 7 6 7 5 2 4 2 5 7 7 7 13 11 12 12 11 8 7
11 11 10 7 5 5 4 3 2 2 4 3 5 5 5 6 6 6 7 10 9 8 9 7 7 7 8 6 7 7 7 2 4 4 5 6 3 1 6 8 9 9 11
10 8 6 7 7 6 6 6 5 7 8 5 3 2 1 2 1 1 1 2 3 6 11 12 8 6 6 7 5 4 8 8 2 4 1 3 3 4 5 4 5 8 10
7 7 7 7 5 6 7 7 6 7 10 9 8 5 3 3 3 4 5 5 5 7 10 10 9 9 6 7 7 9 10 8 5 6 5 3 3 2 3 3 5 8 11
7 7 5 5 5 6 8 9 7 5 6 5 5 9 9 7 6 6 7 7 9 10 12 10 9 10 10 8 8 10 12 11 9 9 10 8 5 5 4 3 4 6 10
7 6 6 7 8 9 8 7 9 12 10 8 8 10 10 10 8 9 8 9 10 10 12 11 11 11 13 12 12 12 12 13 12 15 14 10 8 9 8 7 8 8 8
7 9 10 10 11 9 10 10 11 11 10 10 10 11 12 9 11 10 8 11 10 11 11 15 13 11 14 14 13 14 13 12 12 11 15 12 9 11 12 10 10 9 10
10 9 10 10 10 12 13 11 10 10 12 12 12 11 11 10 10 9 10 10 10 10 11 12 13 11 12 12 14 14 14 14 13 17 8 10 12 14 13 13 12 12 13
11 12 12 12 11 11 12 12 12 12 12 11 10 10 10 11 12 13 12 13 13 13 13 12 13 12 12 13 13 13 13 12 13 13 13 14 14 15 17 15 15 17 15
11 11 11 11 11 11 8 11 13 12 11 12 12 12 12 12 15 15 12 14 15 13 12 12 12 12 12 12 13 11 13 11 13 12 12 12 12 13 14 22 22 20 19
11 11 11 12 12 9 9 11 12 13 14 15 14 14 14 15 16 15 16 19 17 16 16 12 11 13 16 12 11 10 10 10 13 10 13 13 11 12 13 13 14 12 17
11 12 12 11 11 12 7 12 15 13 14 15 15 14 14 12 13 15 14 14 16 19 15 15 16 15 16 13 13 13 12 11 12 11 12 11 9 9 9 11 11 9 9
11 11 10 11 12 11 8 11 16 15 13 15 15 15 15 16 14 11 13 13 14 15 15 13 16 16 15 14 15 14 15 15 12 10 11 11 7 9 9 8 13 11 12
11 11 10 12 14 13 13 15 15 14 13 15 14 15 13 14 17 15 13 14 15 15 14 20 22 22 21 20 18 11 11 11 11 12 12 11 9 9 10 9 9 13 13
11 9 11 13 14 13 14 16 15 11 13 11 12 13 15 16 17 15 13 12 14 15 14 14 12 14 22 20 22 17 13 13 11 11 11 11 10 9 9 10 10 9 10
Wind_Direction
316 313 319 310 313 312 304 304 308 310 304 285 278 274 268 268 268 283 278 115 14 16 33 19 0 342 333 342 357 352 317 308 273 246 236 232 224 217 211 206 203 202 199
309 309 307 307 301 302 299 292 299 295 288 290 269 262 269 273 254 267 264 152 125 58 42 42 42 34 10 351 341 348 345 320 294 266 248 242 234 229 224 218 208 203 202
299 300 299 301 303 303 289 271 268 260 267 256 255 247 247 237 243 236 246 257 154 144 78 48 43 42 39 27 14 355 337 326 295 275 269 251 242 239 234 230 216 208 204
297 295 292 294 298 296 293 289 280 272 262 268 266 258 240 242 233 227 227 232 224 214 148 91 81 62 48 38 24 5 336 314 312 298 274 264 262 263 246 236 220 215 212
298 290 288 289 290 282 278 274 273 268 273 261 258 253 254 252 237 239 234 219 222 233 200 132 131 107 55 25 9 359 348 330 285 290 291 259 246 253 261 239 223 224 228
317 303 295 293 289 282 279 277 274 272 263 270 270 258 244 243 242 237 231 229 216 216 224 213 177 159 143 4 339 333 328 322 319 299 278 44 333 246 238 243 243 231 238
329 319 306 300 295 286 282 281 275 266 260 258 263 257 252 244 244 240 230 230 224 212 209 212 219 233 174 167 267 337 319 320 310 296 297 255 256 267 280 239 233 234 229
332 314 309 300 297 293 287 280 278 275 267 256 257 259 261 253 225 227 238 227 230 221 211 220 213 203 241 279 46 312 318 330 313 288 276 253 233 240 262 270 257 244 235
324 317 308 298 293 289 286 288 281 279 275 266 253 239 265 247 250 233 205 224 221 224 228 205 229 216 225 256 238 193 59 326 319 297 280 270 218 227 246 254 278 257 266
309 310 310 305 299 295 291 289 286 285 281 276 267 260 241 269 274 268 210 205 216 211 210 238 219 234 232 242 203 250 294 303 311 301 274 272 251 232 244 254 255 276 265
317 316 313 309 306 306 311 306 303 294 285 280 279 283 284 254 256 256 257 205 206 207 213 211 251 262 244 251 248 163 64 313 323 322 270 255 254 245 243 248 258 269 284
321 317 320 307 315 327 335 341 357 14 0 6 349 352 341 350 324 276 260 260 252 189 199 211 232 245 249 252 233 99 284 339 327 339 342 264 238 235 249 253 252 262 277
321 321 321 318 324 345 2 3 1 27 72 43 35 29 17 12 2 346 336 319 318 282 253 231 221 240 247 237 266 193 188 231 324 353 354 355 51 333 261 257 257 264 272
317 325 309 311 318 314 311 316 20 2 343 332 299 253 219 279 159 181 286 323 315 285 284 268 252 246 249 254 267 173 266 185 282 330 276 101 54 77 53 23 324 298 284
316 307 304 309 354 9 13 3 19 7 354 342 327 315 278 222 233 226 216 245 252 282 281 267 264 244 248 258 262 266 263 184 176 277 225 165 147 108 83 22 337 319 294
313 313 328 337 352 353 352 345 332 296 265 278 282 289 291 288 268 246 249 248 251 260 271 277 282 285 283 276 269 272 264 273 206 221 222 208 219 250 272 271 293 307 308
317 311 315 321 340 343 327 288 270 261 269 283 294 290 290 288 279 280 275 266 263 268 271 276 274 273 269 266 271 271 266 258 253 203 216 230 245 261 256 255 269 273 280
322 333 344 334 313 290 294 294 290 287 282 293 296 295 294 293 291 284 281 277 278 282 281 280 277 277 271 270 266 265 264 259 258 238 209 215 234 252 253 256 263 258 264
330 314 294 296 310 311 306 296 286 286 291 295 296 295 293 291 284 283 283 284 281 276 273 272 274 273 273 272 271 264 266 265 264 269 247 212 240 246 242 245 251 256 251
308 313 314 314 320 317 310 302 306 304 297 294 294 289 290 288 285 286 282 283 279 276 271 268 268 268 264 264 264 266 260 255 257 257 253 260 273 250 242 243 246 248 249
321 323 318 320 317 311 329 331 314 307 294 292 289 287 285 296 300 285 287 284 282 274 270 268 265 267 268 266 264 270 273 275 271 269 267 265 257 249 244 238 248 238 244
330 322 323 322 320 316 34 342 328 309 301 293 292 291 291 284 274 268 267 265 270 281 281 284 282 271 271 278 269 261 259 258 260 251 255 256 267 272 260 256 253 237 224
324 323 325 327 323 314 28 332 322 303 301 295 294 295 293 289 278 273 276 266 257 258 259 269 270 267 270 270 272 271 267 262 262 262 266 263 257 268 276 276 261 235 236
322 323 326 324 317 314 349 325 318 298 296 295 292 290 288 285 287 300 286 281 273 265 257 247 250 257 260 267 267 267 266 267 264 259 261 263 258 262 266 272 265 265 238
322 325 325 323 315 319 333 324 317 309 298 298 295 291 301 291 285 288 284 280 276 272 266 249 252 259 259 259 260 272 261 255 252 249 247 251 249 255 260 257 256 249 251
318 331 329 320 324 312 328 325 319 309 307 299 296 287 275 271 284 280 278 285 288 286 291 290 274 256 247 249 246 246 252 251 250 255 241 252 254 250 255 243 240 240 239